World > North America > United States > Texas

Hourly Lynchburg, TX Regional Weather

Feedback E-mail the Weather

Quick WX

Lynchburg, TX Weather Maps

°F °C°F °C
Lynchburg Weather Map
UTC Time: 6/26/2022, 08:45
Your Time:

Lynchburg, TX Regional Weather

Expires:202206260900;;208582
ASUS44 KSJT 260815
RWRSJT
WEST CENTRAL TEXAS REGIONAL WEATHER ROUNDUP
NATIONAL WEATHER SERVICE SAN ANGELO TX
300 AM CDT SUN JUN 26 2022

NOTE: "FAIR" INDICATES FEW OR NO CLOUDS BELOW 12,000 FEET WITH NO
SIGNIFICANT WEATHER AND/OR OBSTRUCTIONS TO VISIBILITY.


TXZ163-177-195>197-199-213-226-237-260900-
SOUTHEAST TEXAS
  
CITY           SKY/WX    TMP DP  RH WIND       PRES   REMARKS
COLLEGE STN    CLEAR     79  70  74 SW5       30.03F                  
CALDWELL       SUNNY     77  71  81 SW6       30.05S                  
CROCKETT       SUNNY     73  70  88 CALM      30.02S                  
BRENHAM        CLEAR     78  73  82 SW5       30.05S                  
HUNTSVILLE     CLEAR     82  68  62 S7        30.03S                  
CONROE         CLEAR     80  71  74 W3        30.04S                  
HOUSTON BUSH   CLEAR     80  72  76 S3        30.03S                  
HOUSTON HOBBY  CLEAR     78  73  84 SW5       30.03R                  
PERLAND        CLEAR     76  72  87 CALM      30.04S                  
WHARTON        SUNNY     72  71  95 CALM      30.04S                  
$$


SKY/WX - Weather  TMP - Temperature  DP - Dew Point  RH - Humidity
WIND - Wind Direction/Speed PRES - Barometric Pressure VSB - Visibility
WCI - Wind Chill Index E13G22 Wind - East Wind 13 mph/Gusts of 22 mph

Trending Headlines

Lynchburg Radar Loop



Lynchburg Quick Facts


National Two Day Weather Forecast


E-mail the Lynchburg Weather Forecast

Voice your opinion or tell us about page issues...